Overview Statistics Trail Chart Weather Telemetry Raw packets
 

This is the latest recevied weather packets stored in our database for station/object N5CSU. If no packets are shown the sender has not sent any weather packets the latest 10 day(s).

<< 80 81 82 83 84 85 86 >>
Time Temp. Humidity Pressure Rain* Wind** Luminosity Snow
1788034960 37.78° C 35% 1015.2 hPa 0 mm - 24 W/m² -
1788034656 37.22° C 35% 1015.4 hPa 0 mm - 23 W/m² -
1788034352 37.78° C 35% 1015.5 hPa 0 mm - 17 W/m² -
1788034051 38.33° C 33% 1015.5 hPa 0 mm - 50 W/m² -
1788033745 37.78° C 34% 1015.8 hPa 0 mm - 18 W/m² -
1788033439 37.78° C 36% 1015.8 hPa 0 mm - 19 W/m² -
1788033134 37.78° C 35% 1015.8 hPa 0 mm - 20 W/m² -
1788032830 37.78° C 36% 1015.8 hPa 0 mm - 20 W/m² -
1788032529 37.78° C 36% 1015.8 hPa 0 mm - 22 W/m² -
1788032224 37.78° C 37% 1016.3 hPa 0 mm - 201 W/m² -
1788031921 38.33° C 36% 1016.4 hPa 0 mm - 19 W/m² -
1788031621 38.33° C 36% 1016.5 hPa 0 mm - 124 W/m² -
1788031315 37.78° C 38% 1016.5 hPa 0 mm - 95 W/m² -
1788031014 38.33° C 36% 1016.4 hPa 0 mm - 133 W/m² -
1788030708 37.78° C 36% 1016.5 hPa 0 mm - 43 W/m² -
1788030403 37.78° C 37% 1016.6 hPa 0 mm - 75 W/m² -
1788030099 37.78° C 36% 1016.9 hPa 0 mm - 31 W/m² -
1788029798 37.78° C 38% 1016.6 hPa 0 mm - 22 W/m² -
1788029493 37.78° C 38% 1016.8 hPa 0 mm - 82 W/m² -
1788029206 37.22° C 39% 1016.7 hPa 0 mm - 108 W/m² -
1788028887 37.78° C 39% 1016.9 hPa 0 mm - 27 W/m² -
1788028582 37.78° C 38% 1017 hPa 0 mm - 42 W/m² -
1788028277 37.78° C 38% 1017.1 hPa 0 mm - 228 W/m² -
1788027972 37.78° C 40% 1017.1 hPa 0 mm - 91 W/m² -
1788027667 37.22° C 40% 1017.2 hPa 0 mm - 104 W/m² -

* Rain latest hour (hover to see other rain measurements)
** Current wind speed in m/s (hover to see current wind gust speed)